Cloud_Cover
4 78 81 100 100 100 76 5 96 86 2 2 0 0 30 0 4 56 96 100 5 95
0 54 6 100 100 95 6 89 100 99 43 30 0 0 0 44 8 5 19 11 16 27
0 84 98 100 100 100 41 29 63 100 100 88 0 0 0 4 6 4 1 0 100 1
0 36 100 100 100 61 15 1 0 47 98 1 0 0 5 0 2 5 56 0 2 6
6 0 93 24 6 5 5 0 0 0 0 0 0 0 5 0 0 0 4 3 0 0
100 11 5 4 1 0 0 0 0 0 0 0 0 0 0 1 0 2 1 5 71 82
100 100 5 0 57 94 3 0 0 0 0 0 0 0 2 5 5 4 30 59 43 99
69 98 94 94 69 95 95 0 0 0 0 0 0 0 0 0 1 0 5 5 95 100
96 100 86 100 100 100 57 1 0 2 0 0 0 0 0 23 0 0 0 0 5 39
68 58 100 100 100 100 100 100 100 75 79 7 1 2 14 4 49 2 0 0 0 4
100 75 6 77 100 99 84 94 100 100 100 91 5 5 7 14 1 1 0 0 0 2
5 5 41 24 100 100 99 100 100 100 100 66 74 17 32 48 100 5 0 0 0 2
5 55 52 48 68 100 100 100 100 100 100 96 25 20 100 100 88 99 6 5 5 7
0 2 60 97 73 80 61 100 89 100 100 100 100 93 100 100 96 98 94 11 30 48